Location: Auckland
(36.8670°S, 174.7670°E)
Time: 06:30:19
(UTC+12:00)

Daily predictions for brighter satellites

Satellite Brightness Start Highest point End
(mag) Time Altitude Azimuth Time Altitude Azimuth Time Altitude Azimuth
USA 267 4.2 17:59:40 10° NNE 18:06:04 55° NW 18:12:32 10° SW
Okean O Rocket 1.9 18:06:11 10° SSE 18:10:26 45° E 18:14:37 10° N
Cosmos 2082 Rocket 2.5 18:04:49 10° SSW 18:10:36 80° WNW 18:16:20 10° NNE
CZ-4B R/B 3.3 18:07:25 10° SSE 18:12:44 53° E 18:17:55 10° N
Cosmos 1452 Rocket 3.9 18:08:48 10° N 18:13:44 43° ENE 18:18:46 10° SSE
CENTAUR R/B 2.7 18:10:19 10° SW 18:15:47 60° WNW 18:20:51 10° NNE
ASTRO E2 4.4 18:13:38 10° NW 18:16:49 23° NNE 18:20:01 10° ENE
MOS 1 Rocket 4.1 18:14:04 10° NE 18:18:04 28° ESE 18:21:55 10° SSE
Cosmos 1862 4.4 18:15:39 10° SSE 18:19:02 25° ESE 18:22:23 10° NE
PAYLOAD B 4.4 18:17:28 10° SSE 18:23:10 87° WSW 18:28:46 10° NNW
SEDSat Delta rocket 4.3 18:19:55 10° NW 18:23:19 25° NNE 18:26:44 10° ENE
Cosmos 1633 2.8 18:21:53 10° S 18:25:34 74° W 18:29:07 10° N
GPS 2-04 Rocket1 3.7 18:24:17 10° NW 18:27:51 33° NNE 18:31:00 12° E
Cosmos 1842 Rocket 4.4 18:25:23 10° NNW 18:29:49 57° W 18:34:19 10° S
Envisat 3.0 18:25:38 10° SSE 18:30:48 77° ENE 18:35:54 10° N
CORIOLIS 4.4 18:25:45 10° SSE 18:31:04 50° E 18:36:19 10° N
Cosmos 1441 Rocket 3.7 18:27:27 10° S 18:31:14 38° ESE 18:34:55 10° NNE
deb Kosmos-1763 4.4 18:29:46 10° SSW 18:33:23 68° WNW 18:36:57 10° N
BREEZE-M DEB (TANK) 2.5 18:32:08 10° WSW 18:34:16 49° NW 18:38:02 10° NE
Cosmos 1869 4.4 18:31:38 10° NNW 18:35:25 46° W 18:39:13 10° S
Lacrosse 5 rocket 4.0 18:36:09 10° SW 18:36:25 10° SSW 18:36:41 10° SSW
BREEZE M DEB (TANK) 3.4 18:36:09 10° SSW 18:37:02 12° S 18:38:00 11° SE
AQUARIUS 4.1 18:32:45 10° SSE 18:37:18 67° E 18:41:48 10° N
Cosmos 676 Rocket 4.0 18:34:00 10° SSW 18:39:18 80° ESE 18:44:35 10° NNE
Cosmos 1420 Rocket 4.4 18:35:08 10° NNW 18:40:21 66° WSW 18:45:37 10° SSE
Cosmos 332 Rocket 3.9 18:35:39 10° NNW 18:40:35 83° WSW 18:45:35 10° SSE
Cosmos 1606 3.9 18:37:51 10° NE 18:40:43 21° E 18:43:19 11° SE
Lacrosse 4 Rocket 2.9 18:40:30 10° S 18:43:55 21° SE 18:45:24 18° E
Cosmos 1151 Rocket 4.4 18:42:08 10° NE 18:45:14 19° E 18:46:29 17° ESE
Cosmos 2366 rocket 4.2 18:40:29 10° S 18:46:56 82° W 18:53:16 10° N
CZ-2C R/B 3.2 18:41:56 10° NE 18:46:58 38° ESE 18:52:08 10° S
Sich 1 3.6 18:44:44 10° SSE 18:48:49 35° ESE 18:52:53 10° NE
Aureole 1 Rocket 3.4 18:48:46 10° SSW 18:52:31 66° WNW 18:57:19 10° N
OAO 3 Copernicus 4.4 18:48:45 10° W 18:53:51 73° N 18:57:14 21° E
Milstar 3 Cent rocket 3.3 18:48:58 10° WNW 18:55:00 35° N 18:58:40 14° NE
Cosmos 2369 Rocket 2.2 18:50:59 10° NNW 18:56:42 81° ENE 19:02:29 10° SSE
Cosmos 1743 Rocket 4.3 18:52:53 10° SSW 18:57:14 56° W 19:01:33 10° N
IRS-1C Rocket 4.2 18:55:44 10° SSE 19:00:57 51° E 19:06:06 10° N
Cosmos 1943 Rocket 2.8 18:57:56 10° NW 19:03:21 57° WSW 19:08:50 10° SSE
CZ-4 R/B 3.2 19:07:53 15° NE 19:07:53 15° NE 19:08:53 10° NNE
Cosmos 1110 Rocket 4.0 19:04:08 10° N 19:09:14 56° ENE 19:14:22 10° SSE
FengYun 1-2 T 4.2 19:06:57 10° SSE 19:12:38 82° ENE 19:18:11 10° NNW
Cosmos 2263 4.1 19:08:26 10° NNW 19:14:08 81° ENE 19:19:51 10° SSE
SL-27 R/B 3.8 19:11:21 10° S 19:13:18 25° SSE 19:13:18 25° SSE
Cosmos 1741 Rocket 4.0 19:09:45 10° S 19:14:57 59° ESE 19:20:07 10° NNE
CZ-4 R/B 4.4 19:18:42 20° SSE 19:21:29 58° E 19:25:37 10° N
Abrixas rocket 4.3 19:20:10 10° NNW 19:21:00 15° N 19:21:00 15° N
CZ-4C R/B 3.3 19:17:56 10° NW 19:26:14 68° SW 19:33:28 10° SSE
Cosmos 1666 Rocket 3.4 19:23:24 10° S 19:27:48 64° E 19:30:12 26° NNE
IRIDIUM 106 4.4 19:22:57 10° S 19:28:09 54° E 19:33:16 10° NNE
H-2A R/B 3.7 19:24:36 10° WNW 19:29:59 67° N 19:41:40 28° E
DELTA 2 R/B (1) 3.7 19:25:25 10° W 19:31:00 67° S 19:32:42 44° ESE
ATLAS 3B R/B 3.5 19:28:58 10° SW 19:35:50 51° WNW 19:42:24 10° N
Cosmos 1939 Rocket 2.8 19:35:32 29° S 19:37:28 80° W 19:41:21 10° NNW
Okean-O 2.5 19:39:15 29° SSE 19:41:32 88° E 19:46:00 10° NNW
Cosmos 1933 3.5 19:43:45 10° N 19:47:31 70° NW 19:47:31 70° NW
Helios 1A Rocket 4.3 19:48:02 10° S 19:51:56 39° WSW 19:55:45 10° NW
CZ-2C R/B 3.7 19:53:38 74° SW 19:53:38 74° SW 19:57:49 10° SSW
Cosmos 1331 Rocket 4.4 19:48:37 10° NNW 19:53:43 61° WSW 19:57:18 20° S
Cosmos 1633 Rocket 3.3 19:50:31 10° S 19:54:34 68° SW 19:54:34 68° SW
ASTRO E2 4.3 19:53:06 10° WNW 19:55:39 30° NW 19:55:39 30° NW
Cosmos 1833 4.3 19:53:09 10° SSW 19:58:09 61° SSE 19:58:09 61° SSE
Cosmos 1934 Rocket 3.9 19:54:04 10° S 20:00:23 89° WNW 20:06:43 10° N
Cosmos 1328 Rocket 4.1 19:57:41 10° NNW 20:02:05 58° W 20:02:29 55° WSW
Meteor 1-25 Rocket 4.3 19:59:53 10° S 20:04:45 66° S 20:04:45 66° S
Cosmos 1339 Rocket 4.3 20:01:31 10° N 20:07:39 88° E 20:13:49 10° S
Intelsat 5-1 Rocket 4.5 20:13:18 10° WNW 20:21:16 24° NNW 20:22:11 23° NNW
Lacrosse 4 Rocket 3.1 20:18:33 10° SW 20:21:48 34° W 20:21:48 34° W
BREEZE-M DEB (TANK) 4.2 20:22:10 10° NW 20:39:26 70° NNW 20:39:26 70° NNW
